Date String (YYYY-MM-DD hh:mm:ss) UTC,Instrument flags,Ambient pressure (hPa),Sample flow (lpm),Bypass flow (lpm),Sample temperature (°C),Ambient temperature (°C),ASC tube jacket temperature (°C),LED temperature (°C),Box temperature (°C),Sample RH (%),Span deviation,Mass concentration (μg/m³),Mass concentration (μg/m³),Mass concentration (μg/m³)
DateTimeUTC,F1_M11,P_M11,Q1_M11,Q2_M11,T1_M11,T2_M11,T3_M11,T4_M11,T5_M11,U1_M11,ZSPAN_M11,X0_M11,X2_M11,X1_M11
2023-01-18 03:00:00,,0814.4,5.00,0.00,22.6,22.4,00.0,31.2,24.6,15.3,-002.2,0016.11,0013.88,0013.53
2023-01-18 03:01:00,,0814.4,4.97,0.00,22.6,22.0,00.0,31.3,24.5,15.3,-002.3,0016.24,0014.02,0013.67
2023-01-18 03:02:00,,0814.4,4.97,0.00,22.6,21.7,00.0,31.3,24.4,15.3,-002.0,0016.36,0014.14,0013.79
2023-01-18 03:03:00,,0814.4,5.01,0.00,22.6,21.5,00.0,31.3,24.4,15.3,-001.5,0016.48,0014.24,0013.91
2023-01-18 03:04:00,,0814.4,5.03,0.00,22.6,21.3,00.0,31.3,24.3,15.3,-001.4,0016.71,0014.40,0014.03
2023-01-18 03:05:00,,0814.4,4.99,0.00,22.6,21.1,00.0,31.3,24.3,15.3,-001.2,0016.85,0014.51,0014.14
2023-01-18 03:06:00,,0814.4,4.99,0.00,22.6,21.0,00.0,31.3,24.3,15.3,-001.0,0016.98,0014.61,0014.23
2023-01-18 03:07:00,,0814.4,5.01,0.00,22.5,20.9,00.0,31.3,24.2,15.3,-001.4,0017.24,0014.75,0014.34
2023-01-18 03:08:00,,0814.4,5.00,0.00,22.5,20.9,00.0,31.3,24.2,15.4,-001.4,0017.62,0014.95,0014.53
2023-01-18 03:09:00,,0814.5,5.00,0.00,22.5,20.8,00.0,31.3,24.1,15.4,-001.5,0017.91,0015.18,0014.74
2023-01-18 03:10:00,,0814.4,5.00,0.00,22.4,20.7,00.0,31.3,24.1,15.4,-001.7,0018.14,0015.39,0014.93
2023-01-18 03:11:00,,0814.4,5.00,0.00,22.4,20.7,00.0,31.3,24.1,15.4,-001.8,0018.35,0015.62,0015.15
2023-01-18 03:12:00,,0814.4,5.00,0.00,22.4,20.6,00.0,31.3,24.0,15.5,-002.0,0018.60,0015.87,0015.42
2023-01-18 03:13:00,,0814.4,5.00,0.00,22.4,20.5,00.0,31.2,24.0,15.5,-002.0,0018.90,0016.12,0015.67
2023-01-18 03:14:00,,0814.5,4.98,0.00,22.3,20.4,00.0,31.2,23.9,15.6,-001.9,0019.10,0016.34,0015.88
2023-01-18 03:15:00,,0814.4,5.00,0.00,22.3,20.4,00.0,31.2,23.9,15.6,-001.9,0019.19,0016.48,0016.06
2023-01-18 03:16:00,,0814.4,4.99,0.00,22.3,20.4,00.0,31.2,23.9,15.6,-001.8,0019.35,0016.63,0016.21
2023-01-18 03:17:00,,0814.4,5.01,0.00,22.2,20.3,00.0,31.2,23.9,15.7,-001.9,0019.91,0016.78,0016.38
2023-01-18 03:18:00,,0814.4,5.00,0.00,22.2,20.3,00.0,31.1,23.9,15.7,-001.9,0020.09,0016.85,0016.48
2023-01-18 03:19:00,,0814.4,5.01,0.00,22.2,20.3,00.0,31.1,23.9,15.9,-002.0,0020.08,0016.94,0016.60
2023-01-18 03:20:00,,0814.4,5.00,0.00,22.2,20.4,00.0,31.1,23.9,16.6,-001.9,0020.13,0017.06,0016.74
2023-01-18 03:21:00,,0814.5,4.99,0.00,22.2,20.4,00.0,31.1,23.8,16.1,-001.9,0020.14,0017.13,0016.84
2023-01-18 03:22:00,,0814.4,5.00,0.00,22.1,20.4,00.0,31.1,23.8,15.9,-001.8,0020.12,0017.12,0016.83
2023-01-18 03:23:00,,0814.4,5.02,0.00,22.2,20.9,00.0,31.0,24.0,15.8,-001.7,0020.06,0017.09,0016.82
2023-01-18 03:24:00,,0814.5,5.01,0.00,22.3,21.9,00.0,31.0,24.2,15.8,-001.7,0020.03,0017.16,0016.90
2023-01-18 03:25:00,,0814.6,5.00,0.00,22.4,22.8,00.0,31.0,24.4,15.7,-002.0,0020.04,0017.21,0016.98
2023-01-18 03:26:00,,0814.9,4.99,0.00,22.5,22.6,00.0,31.1,24.5,15.6,-002.2,0020.04,0017.23,0017.00
2023-01-18 03:27:00,,0814.6,5.00,0.00,22.5,22.2,00.0,31.1,24.4,15.6,-002.4,0019.91,0017.17,0016.96
2023-01-18 03:28:00,,0814.4,5.01,0.00,22.5,21.9,00.0,31.1,24.4,15.6,-002.4,0019.37,0017.09,0016.88
2023-01-18 03:29:00,,0814.6,5.00,0.00,22.5,21.6,00.0,31.2,24.3,15.6,-002.4,0019.12,0017.04,0016.84
2023-01-18 03:30:00,,0814.7,5.00,0.00,22.5,21.4,00.0,31.2,24.3,15.6,-002.5,0018.87,0016.91,0016.74
2023-01-18 03:31:00,,0814.7,4.99,0.00,22.5,21.2,00.0,31.2,24.3,15.5,-002.6,0018.67,0016.75,0016.58
2023-01-18 03:32:00,,0814.8,5.01,0.00,22.5,21.1,00.0,31.2,24.3,15.5,-002.6,0018.58,0016.66,0016.47
2023-01-18 03:33:00,,0814.6,5.01,0.00,22.5,21.0,00.0,31.2,24.2,15.5,-002.7,0018.51,0016.61,0016.43
2023-01-18 03:34:00,,0814.4,4.99,0.00,22.4,21.0,00.0,31.2,24.2,15.5,-002.5,0018.49,0016.56,0016.36
2023-01-18 03:35:00,,0814.4,5.00,0.00,22.4,20.9,00.0,31.2,24.2,15.5,-002.5,0018.24,0016.36,0016.16
2023-01-18 03:36:00,,0814.4,5.00,0.00,22.4,20.8,00.0,31.2,24.2,15.5,-002.3,0018.13,0016.17,0015.95
2023-01-18 03:37:00,,0814.4,5.03,0.00,22.4,20.8,00.0,31.2,24.1,15.5,-002.3,0017.99,0016.02,0015.78
2023-01-18 03:38:00,,0814.4,5.01,0.00,22.4,20.7,00.0,31.2,24.1,15.6,-002.2,0017.87,0015.89,0015.66
2023-01-18 03:39:00,,0814.4,4.99,0.00,22.4,20.7,00.0,31.2,24.1,15.6,-002.0,0017.85,0015.87,0015.64
2023-01-18 03:40:00,,0814.4,5.00,0.00,22.3,20.7,00.0,31.2,24.0,15.6,-001.9,0017.85,0015.86,0015.61
2023-01-18 03:41:00,,0814.4,5.01,0.00,22.3,20.6,00.0,31.2,24.0,15.6,-001.8,0017.82,0015.81,0015.55
2023-01-18 03:42:00,,0814.4,5.01,0.00,22.3,20.6,00.0,31.1,24.0,15.6,-001.8,0017.79,0015.78,0015.51
2023-01-18 03:43:00,,0814.4,5.00,0.00,22.3,20.6,00.0,31.1,24.0,15.6,-001.7,0017.74,0015.73,0015.47
2023-01-18 03:44:00,,0814.3,5.00,0.00,22.3,20.6,00.0,31.1,24.0,15.6,-001.5,0017.80,0015.70,0015.42
2023-01-18 03:45:00,,0814.3,5.00,0.00,22.3,20.7,00.0,31.1,24.0,15.7,-001.7,0017.82,0015.65,0015.38
2023-01-18 03:46:00,,0814.3,5.00,0.00,22.2,20.6,00.0,31.1,24.0,15.7,-001.8,0017.74,0015.61,0015.34
2023-01-18 03:47:00,,0814.3,5.00,0.00,22.2,20.6,00.0,31.1,24.0,15.7,-001.8,0017.61,0015.55,0015.30
2023-01-18 03:48:00,,0814.3,5.00,0.00,22.2,20.6,00.0,31.1,23.9,15.7,-001.6,0017.55,0015.52,0015.27
2023-01-18 03:49:00,,0814.6,4.99,0.00,22.2,20.6,00.0,31.1,23.9,15.7,-001.5,0017.55,0015.53,0015.28
2023-01-18 03:50:00,,0814.5,5.01,0.00,22.2,20.5,00.0,31.0,23.9,15.7,-001.7,0017.49,0015.47,0015.23
2023-01-18 03:51:00,,0814.4,5.02,0.00,22.2,21.2,00.0,31.0,24.0,15.7,-001.8,0017.37,0015.39,0015.19
2023-01-18 03:52:00,,0814.5,5.00,0.00,22.3,22.2,00.0,31.0,24.3,15.6,-001.7,0017.35,0015.36,0015.16
2023-01-18 03:53:00,,0814.3,5.00,0.00,22.4,22.9,00.0,31.0,24.5,15.6,-001.5,0017.30,0015.30,0015.10
2023-01-18 03:54:00,,0814.7,5.00,0.00,22.5,22.6,00.0,31.1,24.5,15.5,-001.5,0017.16,0015.21,0015.03
2023-01-18 03:55:00,,0814.3,5.01,0.00,22.5,22.2,00.0,31.1,24.4,15.5,-001.7,0016.95,0015.11,0014.97
2023-01-18 03:56:00,,0814.3,5.01,0.00,22.5,21.9,00.0,31.1,24.4,15.5,-001.6,0016.79,0015.06,0014.94
2023-01-18 03:57:00,,0814.4,5.00,0.00,22.5,21.6,00.0,31.2,24.3,15.5,-001.8,0016.75,0015.01,0014.89
2023-01-18 03:58:00,,0814.2,5.01,0.00,22.5,21.4,00.0,31.2,24.3,15.5,-002.0,0016.72,0014.94,0014.83
2023-01-18 03:59:00,,0814.2,4.99,0.00,22.5,21.3,00.0,31.2,24.3,15.5,-002.4,0016.64,0014.86,0014.76
